Teterboro, NJ

4:14 PM EST on February 20, 2017 (GMT -0500)
Teterboro

Weather History for KTEB - January, 2012

Change the Weather History Date:

Wednesday, January 11, 2012

  Actual Average Record
Temperature  
Mean Temperature 38 °F -  
Max Temperature 48 °F 36 °F 59 °F (2014)
Min Temperature 27 °F 23 °F 5 °F (2004)
Degree Days  
Heating Degree Days 28    
Moisture  
Dew Point 27 °F    
Average Humidity 62    
Maximum Humidity 81    
Minimum Humidity 42    
Precipitation  
Precipitation 0.03 in - - ()
Sea Level Pressure  
Sea Level Pressure 30.01 in    
Wind  
Wind Speed 3 mph (ESE)    
Max Wind Speed 12 mph    
Max Gust Speed 18 mph    
Visibility 10 miles    
Events Rain    
Averages and records for this station are not official NWS values.
T = Trace of Precipitation, MM = Missing Value Source: NWS Daily Summary

Daily Weather History Graph

Daily Weather History Graph

Search for Another Location

Airport or City:

Trip Planner

Search our weather history database for the weather conditions in past years. The results will help you decide how hot, cold, wet, or windy it might be!

Date:

Astronomy

Jan. 11, 2012 Rise Set
Actual Time 7:20 AM EST 4:48 PM EST
Civil Twilight 6:49 AM EST 5:18 PM EST
Nautical Twilight 6:15 AM EST 5:52 PM EST
Astronomical Twilight 5:42 AM EST 6:25 PM EST
Moon 7:45 PM EST (1/11) 8:29 AM EST (1/11)
Length of Visible Light 10h 29m
Length of Day
9h 28m
Waning Gibbous, 93% of the Moon is Illuminated
Jan 11
Waning Gibbous
Jan 16
Last Quarter
Jan 23
New
Jan 30
First Quarter
Feb 7
Full

Hourly Weather History & Observations

Time (EST) Temp. Windchill Dew Point Humidity Pressure Visibility Wind Dir Wind Speed Gust Speed Precip Events Conditions
12:51 AM 32.0 °F - 23.0 °F 69% 30.01 in 10.0 mi Calm Calm - N/A   Clear
1:51 AM 30.9 °F 27.5 °F 23.0 °F 72% 30.04 in 10.0 mi SSW 3.5 mph - 0.00 in   Clear
2:51 AM 32.0 °F - 23.0 °F 69% 30.03 in 10.0 mi Calm Calm - 0.00 in   Clear
3:51 AM 33.1 °F - 23.0 °F 66% 30.03 in 10.0 mi Calm Calm - N/A   Clear
4:51 AM 30.0 °F - 23.0 °F 75% 30.05 in 10.0 mi Calm Calm - N/A   Clear
5:51 AM 28.0 °F - 21.9 °F 78% 30.06 in 10.0 mi Calm Calm - N/A   Clear
6:51 AM 27.0 °F - 21.9 °F 81% 30.07 in 10.0 mi Calm Calm - N/A   Clear
7:51 AM 32.0 °F - 24.8 °F 75% 30.06 in 10.0 mi Calm Calm - N/A   Clear
8:51 AM 37.0 °F - 25.0 °F 62% 30.07 in 10.0 mi Calm Calm - N/A   Clear
9:51 AM 41.0 °F - 25.0 °F 53% 30.10 in 10.0 mi Calm Calm - 0.00 in   Clear
10:51 AM 43.0 °F - 25.0 °F 49% 30.09 in 10.0 mi Calm Calm - 0.00 in   Clear
11:51 AM 45.0 °F 42.6 °F 24.1 °F 44% 30.06 in 10.0 mi SE 4.6 mph - N/A   Clear
12:51 PM 46.4 °F 42.4 °F 24.8 °F 43% 30.04 in 10.0 mi SSW 8.1 mph - N/A   Clear
1:51 PM 48.0 °F - 26.1 °F 42% 30.01 in 10.0 mi SSE 8.1 mph - N/A   Clear
2:51 PM 46.0 °F 41.9 °F 27.0 °F 47% 30.01 in 10.0 mi SSE 8.1 mph - N/A   Clear
3:51 PM 45.0 °F 40.1 °F 27.0 °F 49% 30.00 in 10.0 mi SE 9.2 mph - N/A   Clear
4:51 PM 45.0 °F 40.6 °F 28.9 °F 53% 29.99 in 10.0 mi SE 8.1 mph - N/A   Clear
5:51 PM 45.0 °F 39.7 °F 30.0 °F 56% 29.98 in 10.0 mi ESE 10.4 mph 16.1 mph N/A   Scattered Clouds
6:51 PM 44.1 °F 38.1 °F 30.0 °F 58% 29.98 in 10.0 mi East 11.5 mph - N/A   Overcast
7:51 PM 44.1 °F 40.8 °F 30.0 °F 58% 29.98 in 10.0 mi East 5.8 mph - N/A   Overcast
8:51 PM 43.0 °F 40.3 °F 30.9 °F 62% 29.96 in 10.0 mi ENE 4.6 mph - 0.00 in Rain Light Rain
9:31 PM 42.8 °F 38.6 °F 32.0 °F 66% 29.93 in 10.0 mi NE 6.9 mph - 0.00 in Rain Light Rain
9:51 PM 43.0 °F 38.8 °F 32.0 °F 65% 29.92 in 10.0 mi ENE 6.9 mph - 0.00 in Rain Light Rain
10:51 PM 42.8 °F 38.0 °F 35.6 °F 76% 29.88 in 8.0 mi ENE 8.1 mph - N/A Rain Light Rain
11:51 PM 42.1 °F 36.1 °F 36.0 °F 79% 29.83 in 8.0 mi ENE 10.4 mph 18.4 mph 0.03 in Rain Light Rain